Time,TemperatureF,DewpointF,PressureIn,WindDirection,WindDirectionDegrees,WindSpeedMPH,WindSpeedGustMPH,Humidity,HourlyPrecipIn,Conditions,Clouds,dailyrainin,SoftwareType,DateUTC
2013-09-02 00:02:00,61.3,28.8,29.88,SSE,163,0.0,0.0,29,0.00,,---,0.00,VWS V14.01,2013-09-02 06:02:00,
2013-09-02 00:07:00,61.5,28.1,29.88,SW,233,0.0,0.0,28,0.00,,---,0.00,VWS V14.01,2013-09-02 06:07:00,
2013-09-02 00:12:00,61.5,28.1,29.88,South,178,4.0,4.0,28,0.00,,---,0.00,VWS V14.01,2013-09-02 06:12:00,
2013-09-02 00:17:00,61.3,28.0,29.88,SSW,211,0.0,3.6,28,0.00,,---,0.00,VWS V14.01,2013-09-02 06:17:00,
2013-09-02 00:21:00,61.3,28.0,29.88,SE,144,0.0,3.6,28,0.00,,---,0.00,VWS V14.01,2013-09-02 06:21:00,
2013-09-02 00:26:00,61.2,27.8,29.88,SSE,157,0.0,4.0,28,0.00,,---,0.00,VWS V14.01,2013-09-02 06:26:00,
2013-09-02 00:31:00,60.3,28.7,29.88,SW,223,0.0,0.0,30,0.00,,---,0.00,VWS V14.01,2013-09-02 06:31:00,
2013-09-02 00:36:00,59.9,28.4,29.88,WSW,239,0.0,0.0,30,0.00,,---,0.00,VWS V14.01,2013-09-02 06:36:00,
2013-09-02 00:41:00,59.5,28.1,29.88,SSE,147,0.0,0.0,30,0.00,,---,0.00,VWS V14.01,2013-09-02 06:41:00,
2013-09-02 00:46:00,59.2,27.8,29.88,SSE,147,0.0,0.0,30,0.00,,---,0.00,VWS V14.01,2013-09-02 06:46:00,
2013-09-02 00:51:00,59.2,27.8,29.88,SSE,148,0.0,0.0,30,0.00,,---,0.00,VWS V14.01,2013-09-02 06:51:00,
2013-09-02 00:56:00,59.0,27.6,29.88,SSE,148,0.0,0.0,30,0.00,,---,0.00,VWS V14.01,2013-09-02 06:56:00,
2013-09-02 01:01:00,58.8,28.3,29.88,SSE,164,0.0,0.0,31,0.00,,---,0.00,VWS V14.01,2013-09-02 07:01:00,
2013-09-02 01:06:00,59.0,28.4,29.88,SSE,164,0.0,0.0,31,0.00,,---,0.00,VWS V14.01,2013-09-02 07:06:00,
2013-09-02 01:11:00,59.4,28.7,29.88,SW,220,0.0,0.0,31,0.00,,---,0.00,VWS V14.01,2013-09-02 07:11:00,
2013-09-02 01:16:00,59.4,28.7,29.88,SW,223,0.0,0.0,31,0.00,,---,0.00,VWS V14.01,2013-09-02 07:16:00,
2013-09-02 01:21:00,59.9,28.4,29.88,WSW,249,0.0,2.7,30,0.00,,---,0.00,VWS V14.01,2013-09-02 07:21:00,
2013-09-02 01:26:00,60.4,28.9,29.88,WSW,243,0.0,2.7,30,0.00,,---,0.00,VWS V14.01,2013-09-02 07:26:00,
2013-09-02 01:31:00,60.4,28.1,29.88,WSW,243,0.0,0.0,29,0.00,,---,0.00,VWS V14.01,2013-09-02 07:31:00,
2013-09-02 01:36:00,60.1,27.7,29.88,SSE,164,0.0,2.7,29,0.00,,---,0.00,VWS V14.01,2013-09-02 07:36:00,
2013-09-02 01:41:00,59.4,27.9,29.88,SSE,164,0.0,2.7,30,0.00,,---,0.00,VWS V14.01,2013-09-02 07:41:00,
2013-09-02 01:46:00,59.0,27.6,29.88,SSE,164,0.0,0.0,30,0.00,,---,0.00,VWS V14.01,2013-09-02 07:46:00,
2013-09-02 01:51:00,58.6,28.1,29.88,SSE,164,0.0,0.0,31,0.00,,---,0.00,VWS V14.01,2013-09-02 07:51:00,
2013-09-02 01:56:00,58.3,27.8,29.88,SSE,164,0.0,0.0,31,0.00,,---,0.00,VWS V14.01,2013-09-02 07:56:00,
2013-09-02 02:01:00,57.9,28.3,29.88,SSE,164,0.0,0.0,32,0.00,,---,0.00,VWS V14.01,2013-09-02 08:01:00,
2013-09-02 02:06:00,57.9,29.0,29.88,SSW,202,0.0,0.0,33,0.00,,---,0.00,VWS V14.01,2013-09-02 08:06:00,
2013-09-02 02:11:00,58.1,29.2,29.88,SSW,202,0.0,0.0,33,0.00,,---,0.00,VWS V14.01,2013-09-02 08:11:00,
2013-09-02 02:16:00,58.1,29.2,29.88,SSW,202,0.0,0.0,33,0.00,,---,0.00,VWS V14.01,2013-09-02 08:16:00,
2013-09-02 02:21:00,58.5,28.7,29.88,SSW,202,0.0,0.0,32,0.00,,---,0.00,VWS V14.01,2013-09-02 08:21:00,
2013-09-02 02:26:00,58.8,29.0,29.88,SW,218,0.0,0.0,32,0.00,,---,0.00,VWS V14.01,2013-09-02 08:26:00,
2013-09-02 02:31:00,58.8,29.0,29.88,SW,218,0.0,0.0,32,0.00,,---,0.00,VWS V14.01,2013-09-02 08:31:00,
2013-09-02 02:36:00,59.4,28.7,29.88,SSW,197,0.0,0.0,31,0.00,,---,0.00,VWS V14.01,2013-09-02 08:36:00,
2013-09-02 02:41:00,59.7,28.3,29.88,SSW,205,2.7,3.1,30,0.00,,---,0.00,VWS V14.01,2013-09-02 08:41:00,
2013-09-02 02:46:00,59.9,28.4,29.88,SW,215,0.0,0.0,30,0.00,,---,0.00,VWS V14.01,2013-09-02 08:46:00,
2013-09-02 02:51:00,59.5,28.1,29.88,SSW,207,4.0,4.0,30,0.00,,---,0.00,VWS V14.01,2013-09-02 08:51:00,
2013-09-02 02:56:00,60.3,27.9,29.88,SSW,203,3.1,4.0,29,0.00,,---,0.00,VWS V14.01,2013-09-02 08:56:00,
2013-09-02 03:01:00,61.0,27.7,29.88,South,186,3.1,4.0,28,0.00,,---,0.00,VWS V14.01,2013-09-02 09:01:00,
2013-09-02 03:06:00,61.3,27.1,29.88,SW,225,2.7,4.0,27,0.00,,---,0.00,VWS V14.01,2013-09-02 09:06:00,
2013-09-02 03:11:00,60.8,26.6,29.88,South,191,2.7,4.0,27,0.00,,---,0.00,VWS V14.01,2013-09-02 09:11:00,
2013-09-02 03:16:00,60.8,26.6,29.88,SE,126,2.2,3.1,27,0.00,,---,0.00,VWS V14.01,2013-09-02 09:16:00,
2013-09-02 03:21:00,60.8,26.6,29.88,SE,144,2.7,4.0,27,0.00,,---,0.00,VWS V14.01,2013-09-02 09:21:00,
2013-09-02 03:26:00,61.0,26.8,29.88,SSE,167,2.7,4.0,27,0.00,,---,0.00,VWS V14.01,2013-09-02 09:26:00,
2013-09-02 03:31:00,60.6,27.4,29.88,South,173,0.0,0.0,28,0.00,,---,0.00,VWS V14.01,2013-09-02 09:31:00,
2013-09-02 03:36:00,59.4,26.3,29.88,South,173,0.0,0.0,28,0.00,,---,0.00,VWS V14.01,2013-09-02 09:36:00,
2013-09-02 03:41:00,58.5,27.2,29.88,South,173,0.0,0.0,30,0.00,,---,0.00,VWS V14.01,2013-09-02 09:41:00,
2013-09-02 03:46:00,57.7,26.5,29.88,South,173,0.0,0.0,30,0.00,,---,0.00,VWS V14.01,2013-09-02 09:46:00,
2013-09-02 03:51:00,57.4,27.8,29.88,South,173,0.0,0.0,32,0.00,,---,0.00,VWS V14.01,2013-09-02 09:51:00,
2013-09-02 03:56:00,57.6,28.7,29.88,South,173,0.0,0.0,33,0.00,,---,0.00,VWS V14.01,2013-09-02 09:56:00,
2013-09-02 04:01:00,57.2,28.4,29.88,SW,226,0.0,0.0,33,0.00,,---,0.00,VWS V14.01,2013-09-02 10:01:00,
2013-09-02 04:06:00,56.7,28.6,29.88,SW,226,0.0,0.0,34,0.00,,---,0.00,VWS V14.01,2013-09-02 10:06:00,
2013-09-02 04:11:00,56.7,29.3,29.88,SSE,164,0.0,0.0,35,0.00,,---,0.00,VWS V14.01,2013-09-02 10:11:00,
2013-09-02 04:16:00,56.5,29.2,29.88,SSE,164,0.0,0.0,35,0.00,,---,0.00,VWS V14.01,2013-09-02 10:16:00,
2013-09-02 04:21:00,56.3,29.0,29.88,SSE,164,0.0,0.0,35,0.00,,---,0.00,VWS V14.01,2013-09-02 10:21:00,
2013-09-02 04:26:00,56.1,28.9,29.88,SSE,165,0.0,0.0,35,0.00,,---,0.00,VWS V14.01,2013-09-02 10:26:00,
2013-09-02 04:31:00,55.9,29.4,29.88,SSE,164,0.0,0.0,36,0.00,,---,0.00,VWS V14.01,2013-09-02 10:31:00,
2013-09-02 04:36:00,55.6,29.1,29.88,SSE,165,0.0,0.0,36,0.00,,---,0.00,VWS V14.01,2013-09-02 10:36:00,
2013-09-02 04:41:00,55.4,28.9,29.88,SSE,165,0.0,0.0,36,0.00,,---,0.00,VWS V14.01,2013-09-02 10:41:00,
2013-09-02 04:46:00,55.4,28.9,29.88,SSE,165,0.0,0.0,36,0.00,,---,0.00,VWS V14.01,2013-09-02 10:46:00,
2013-09-02 04:51:00,55.8,29.2,29.88,SSE,164,0.0,0.0,36,0.00,,---,0.00,VWS V14.01,2013-09-02 10:51:00,
2013-09-02 04:56:00,55.8,29.2,29.88,SSE,165,0.0,0.0,36,0.00,,---,0.00,VWS V14.01,2013-09-02 10:56:00,
2013-09-02 05:01:00,55.9,29.4,29.88,SSE,165,0.0,0.0,36,0.00,,---,0.00,VWS V14.01,2013-09-02 11:01:00,
2013-09-02 05:06:00,55.9,29.4,29.88,SSE,164,0.0,0.0,36,0.00,,---,0.00,VWS V14.01,2013-09-02 11:06:00,
2013-09-02 05:11:00,55.8,29.2,29.88,SSE,165,0.0,0.0,36,0.00,,---,0.00,VWS V14.01,2013-09-02 11:11:00,
2013-09-02 05:16:00,55.8,29.9,29.88,WSW,237,0.0,0.0,37,0.00,,---,0.00,VWS V14.01,2013-09-02 11:16:00,
2013-09-02 05:21:00,55.8,29.9,29.88,WSW,237,0.0,0.0,37,0.00,,---,0.00,VWS V14.01,2013-09-02 11:21:00,
2013-09-02 05:26:00,55.9,30.1,29.88,WSW,237,0.0,0.0,37,0.00,,---,0.00,VWS V14.01,2013-09-02 11:26:00,
2013-09-02 05:31:00,55.8,29.9,29.88,WSW,237,0.0,0.0,37,0.00,,---,0.00,VWS V14.01,2013-09-02 11:31:00,
2013-09-02 05:36:00,55.4,29.6,29.88,WSW,237,0.0,0.0,37,0.00,,---,0.00,VWS V14.01,2013-09-02 11:36:00,
2013-09-02 05:41:00,55.2,29.4,29.88,WSW,237,0.0,0.0,37,0.00,,---,0.00,VWS V14.01,2013-09-02 11:41:00,
2013-09-02 05:46:00,55.0,29.9,29.88,WSW,237,0.0,0.0,38,0.00,,---,0.00,VWS V14.01,2013-09-02 11:46:00,
2013-09-02 05:51:00,55.0,29.9,29.91,WSW,237,0.0,0.0,38,0.00,,---,0.00,VWS V14.01,2013-09-02 11:51:00,
2013-09-02 05:56:00,55.0,29.9,29.91,WSW,237,0.0,0.0,38,0.00,,---,0.00,VWS V14.01,2013-09-02 11:56:00,
2013-09-02 06:01:00,55.2,30.1,29.91,WSW,237,0.0,0.0,38,0.00,,---,0.00,VWS V14.01,2013-09-02 12:01:00,
2013-09-02 06:06:00,55.2,30.1,29.91,WSW,237,0.0,0.0,38,0.00,,---,0.00,VWS V14.01,2013-09-02 12:06:00,
2013-09-02 06:11:00,55.4,30.2,29.91,WSW,237,0.0,0.0,38,0.00,,---,0.00,VWS V14.01,2013-09-02 12:11:00,
2013-09-02 06:16:00,55.2,30.1,29.91,WSW,237,0.0,0.0,38,0.00,,---,0.00,VWS V14.01,2013-09-02 12:16:00,
2013-09-02 06:21:00,54.9,29.8,29.91,WSW,237,0.0,0.0,38,0.00,,---,0.00,VWS V14.01,2013-09-02 12:21:00,
2013-09-02 06:26:00,54.5,29.4,29.91,WSW,237,0.0,0.0,38,0.00,,---,0.00,VWS V14.01,2013-09-02 12:26:00,
2013-09-02 06:31:00,54.3,29.3,29.91,WSW,237,0.0,0.0,38,0.00,,---,0.00,VWS V14.01,2013-09-02 12:31:00,
2013-09-02 06:36:00,54.1,29.8,29.91,WSW,237,0.0,0.0,39,0.00,,---,0.00,VWS V14.01,2013-09-02 12:36:00,
2013-09-02 06:41:00,54.0,29.6,29.91,WSW,237,0.0,0.0,39,0.00,,---,0.00,VWS V14.01,2013-09-02 12:41:00,
2013-09-02 06:46:00,54.0,29.6,29.91,WSW,237,0.0,0.0,39,0.00,,---,0.00,VWS V14.01,2013-09-02 12:46:00,
2013-09-02 06:51:00,53.6,29.3,29.91,SW,236,0.0,0.0,39,0.00,,---,0.00,VWS V14.01,2013-09-02 12:51:00,
2013-09-02 06:56:00,53.4,29.7,29.91,SW,236,0.0,0.0,40,0.00,,---,0.00,VWS V14.01,2013-09-02 12:56:00,
2013-09-02 07:01:00,53.1,29.4,29.91,SW,236,0.0,0.0,40,0.00,,---,0.00,VWS V14.01,2013-09-02 13:01:00,
2013-09-02 07:06:00,53.2,29.6,29.91,WSW,237,0.0,0.0,40,0.00,,---,0.00,VWS V14.01,2013-09-02 13:06:00,
2013-09-02 07:11:00,53.4,30.3,29.91,SW,236,0.0,0.0,41,0.00,,---,0.00,VWS V14.01,2013-09-02 13:11:00,
2013-09-02 07:16:00,54.0,30.2,29.91,SW,236,0.0,0.0,40,0.00,,---,0.00,VWS V14.01,2013-09-02 13:16:00,
2013-09-02 07:21:00,54.1,30.4,29.91,SW,236,0.0,0.0,40,0.00,,---,0.00,VWS V14.01,2013-09-02 13:21:00,
2013-09-02 07:26:00,54.3,30.5,29.91,WSW,237,0.0,0.0,40,0.00,,---,0.00,VWS V14.01,2013-09-02 13:26:00,
2013-09-02 07:31:00,54.1,30.4,29.91,WSW,237,0.0,0.0,40,0.00,,---,0.00,VWS V14.01,2013-09-02 13:31:00,
2013-09-02 07:36:00,54.1,30.4,29.91,WSW,237,0.0,0.0,40,0.00,,---,0.00,VWS V14.01,2013-09-02 13:36:00,
2013-09-02 07:41:00,54.3,31.1,29.91,South,185,0.0,0.0,41,0.00,,---,0.00,VWS V14.01,2013-09-02 13:41:00,
2013-09-02 07:46:00,54.5,31.3,29.91,South,185,0.0,0.0,41,0.00,,---,0.00,VWS V14.01,2013-09-02 13:46:00,
2013-09-02 07:51:00,55.2,32.0,29.91,South,185,0.0,0.0,41,0.00,,---,0.00,VWS V14.01,2013-09-02 13:51:00,
2013-09-02 07:56:00,55.9,32.0,29.91,South,185,0.0,0.0,40,0.00,,---,0.00,VWS V14.01,2013-09-02 13:56:00,
2013-09-02 08:01:00,56.7,32.6,29.91,South,185,0.0,0.0,40,0.00,,---,0.00,VWS V14.01,2013-09-02 14:01:00,
2013-09-02 08:06:00,57.6,33.4,29.91,South,185,0.0,0.0,40,0.00,,---,0.00,VWS V14.01,2013-09-02 14:06:00,
2013-09-02 08:11:00,58.6,33.8,29.91,South,185,0.0,0.0,39,0.00,,---,0.00,VWS V14.01,2013-09-02 14:11:00,
2013-09-02 08:16:00,59.7,34.1,29.91,South,185,0.0,0.0,38,0.00,,---,0.00,VWS V14.01,2013-09-02 14:16:00,
2013-09-02 08:21:00,60.6,34.2,29.91,South,185,0.0,0.0,37,0.00,,---,0.00,VWS V14.01,2013-09-02 14:21:00,
2013-09-02 08:26:00,61.5,34.3,29.91,South,178,0.0,0.0,36,0.00,,---,0.00,VWS V14.01,2013-09-02 14:26:00,
2013-09-02 08:31:00,62.6,33.9,29.91,South,181,0.0,0.0,34,0.00,,---,0.00,VWS V14.01,2013-09-02 14:31:00,
2013-09-02 08:36:00,64.0,32.8,29.91,South,171,4.0,4.5,31,0.00,,---,0.00,VWS V14.01,2013-09-02 14:36:00,
2013-09-02 08:41:00,65.5,33.3,29.91,SSW,192,0.0,4.5,30,0.00,,---,0.00,VWS V14.01,2013-09-02 14:41:00,
2013-09-02 08:46:00,66.4,33.2,29.91,SSE,162,0.0,0.0,29,0.00,,---,0.00,VWS V14.01,2013-09-02 14:46:00,
2013-09-02 08:51:00,67.3,34.0,29.91,SSE,162,0.0,0.0,29,0.00,,---,0.00,VWS V14.01,2013-09-02 14:51:00,
2013-09-02 08:56:00,67.6,34.3,29.91,SSE,162,0.0,0.0,29,0.00,,---,0.00,VWS V14.01,2013-09-02 14:56:00,
2013-09-02 09:01:00,67.3,33.1,29.91,SSE,151,0.0,0.0,28,0.00,,---,0.00,VWS V14.01,2013-09-02 15:01:00,
2013-09-02 09:06:00,66.9,31.9,29.91,SSE,151,0.0,0.0,27,0.00,,---,0.00,VWS V14.01,2013-09-02 15:06:00,
2013-09-02 09:11:00,67.1,32.0,29.91,SSE,151,0.0,0.0,27,0.00,,---,0.00,VWS V14.01,2013-09-02 15:11:00,
2013-09-02 09:16:00,67.5,32.3,29.91,SSE,151,0.0,0.0,27,0.00,,---,0.00,VWS V14.01,2013-09-02 15:16:00,
2013-09-02 09:21:00,67.8,32.7,29.91,SSE,151,0.0,0.0,27,0.00,,---,0.00,VWS V14.01,2013-09-02 15:21:00,
2013-09-02 09:26:00,68.0,31.9,29.91,East,85,0.0,0.0,26,0.00,,---,0.00,VWS V14.01,2013-09-02 15:26:00,
2013-09-02 09:31:00,67.8,32.7,29.91,East,86,0.0,0.0,27,0.00,,---,0.00,VWS V14.01,2013-09-02 15:31:00,
2013-09-02 09:36:00,68.0,31.9,29.91,East,86,0.0,0.0,26,0.00,,---,0.00,VWS V14.01,2013-09-02 15:36:00,
2013-09-02 09:41:00,68.5,32.3,29.91,East,91,0.0,0.0,26,0.00,,---,0.00,VWS V14.01,2013-09-02 15:41:00,
2013-09-02 09:46:00,68.9,32.6,29.91,ESE,117,0.0,0.0,26,0.00,,---,0.00,VWS V14.01,2013-09-02 15:46:00,
2013-09-02 09:51:00,69.1,32.8,29.91,ESE,117,0.0,0.0,26,0.00,,---,0.00,VWS V14.01,2013-09-02 15:51:00,
2013-09-02 09:56:00,68.9,31.7,29.91,SE,139,0.0,0.0,25,0.00,,---,0.00,VWS V14.01,2013-09-02 15:56:00,
2013-09-02 10:01:00,68.7,31.5,29.91,SE,139,0.0,0.0,25,0.00,,---,0.00,VWS V14.01,2013-09-02 16:01:00,
2013-09-02 10:06:00,68.4,31.2,29.91,SE,139,0.0,0.0,25,0.00,,---,0.00,VWS V14.01,2013-09-02 16:06:00,
2013-09-02 10:11:00,68.4,32.2,29.91,SE,139,0.0,0.0,26,0.00,,---,0.00,VWS V14.01,2013-09-02 16:11:00,
2013-09-02 10:16:00,68.4,32.2,29.91,SE,139,0.0,0.0,26,0.00,,---,0.00,VWS V14.01,2013-09-02 16:16:00,
2013-09-02 10:21:00,68.7,31.5,29.91,East,81,0.0,0.0,25,0.00,,---,0.00,VWS V14.01,2013-09-02 16:21:00,
2013-09-02 10:26:00,69.1,32.8,29.91,ENE,74,0.0,0.0,26,0.00,,---,0.00,VWS V14.01,2013-09-02 16:26:00,
2013-09-02 10:31:00,69.4,33.1,29.91,East,98,2.2,2.7,26,0.00,,---,0.00,VWS V14.01,2013-09-02 16:31:00,
2013-09-02 10:36:00,69.6,33.2,29.91,ENE,63,2.7,4.0,26,0.00,,---,0.00,VWS V14.01,2013-09-02 16:36:00,
2013-09-02 10:41:00,70.2,31.7,29.91,ENE,61,0.0,4.0,24,0.00,,---,0.00,VWS V14.01,2013-09-02 16:41:00,
2013-09-02 10:46:00,71.4,33.8,29.91,East,82,0.0,0.0,25,0.00,,---,0.00,VWS V14.01,2013-09-02 16:46:00,
2013-09-02 10:51:00,72.7,33.8,29.91,East,82,0.0,0.0,24,0.00,,---,0.00,VWS V14.01,2013-09-02 16:51:00,
2013-09-02 10:56:00,73.8,33.7,29.91,East,82,0.0,0.0,23,0.00,,---,0.00,VWS V14.01,2013-09-02 16:56:00,
2013-09-02 11:00:00,74.1,32.9,29.91,East,82,0.0,0.0,22,0.00,,---,0.00,VWS V14.01,2013-09-02 17:00:00,
2013-09-02 11:05:00,75.0,33.6,29.88,ENE,72,0.0,0.0,22,0.00,,---,0.00,VWS V14.01,2013-09-02 17:05:00,
2013-09-02 11:10:00,76.5,33.7,29.88,ENE,67,0.0,0.0,21,0.00,,---,0.00,VWS V14.01,2013-09-02 17:10:00,
2013-09-02 11:15:00,78.8,34.4,29.88,North,3,0.0,0.0,20,0.00,,---,0.00,VWS V14.01,2013-09-02 17:15:00,
2013-09-02 11:20:00,78.8,34.4,29.91,North,4,0.0,0.0,20,0.00,,---,0.00,VWS V14.01,2013-09-02 17:20:00,
2013-09-02 11:25:00,79.9,35.3,29.91,NE,42,0.0,0.0,20,0.00,,---,0.00,VWS V14.01,2013-09-02 17:25:00,
2013-09-02 11:30:00,79.3,34.8,29.91,NW,316,0.0,0.0,20,0.00,,---,0.00,VWS V14.01,2013-09-02 17:30:00,
2013-09-02 11:35:00,79.2,34.7,29.91,NW,317,0.0,0.0,20,0.00,,---,0.00,VWS V14.01,2013-09-02 17:35:00,
2013-09-02 11:40:00,79.5,35.0,29.91,NW,316,0.0,0.0,20,0.00,,---,0.00,VWS V14.01,2013-09-02 17:40:00,
2013-09-02 11:45:00,81.9,35.6,29.91,NE,43,0.0,0.0,19,0.00,,---,0.00,VWS V14.01,2013-09-02 17:45:00,
2013-09-02 11:50:00,81.7,35.5,29.91,NNE,13,0.0,2.7,19,0.00,,---,0.00,VWS V14.01,2013-09-02 17:50:00,
2013-09-02 11:55:00,81.5,32.5,29.91,NW,321,0.0,2.7,17,0.00,,---,0.00,VWS V14.01,2013-09-02 17:55:00,
2013-09-02 12:00:00,80.8,32.0,29.91,North,9,0.0,0.0,17,0.00,,---,0.00,VWS V14.01,2013-09-02 18:00:00,
2013-09-02 12:05:00,80.6,31.8,29.91,North,2,0.0,0.0,17,0.00,,---,0.00,VWS V14.01,2013-09-02 18:05:00,
2013-09-02 12:10:00,80.1,35.4,29.91,NE,45,0.0,2.2,20,0.00,,---,0.00,VWS V14.01,2013-09-02 18:10:00,
2013-09-02 12:15:00,80.1,35.4,29.91,NNW,341,2.7,3.6,20,0.00,,---,0.00,VWS V14.01,2013-09-02 18:15:00,
2013-09-02 12:20:00,80.2,35.6,29.91,North,357,0.0,3.6,20,0.00,,---,0.00,VWS V14.01,2013-09-02 18:20:00,
2013-09-02 12:25:00,79.7,35.1,29.91,North,7,0.0,3.6,20,0.00,,---,0.00,VWS V14.01,2013-09-02 18:25:00,
2013-09-02 12:30:00,79.7,35.1,29.91,NE,56,0.0,0.0,20,0.00,,---,0.00,VWS V14.01,2013-09-02 18:30:00,
2013-09-02 12:35:00,79.9,35.3,29.91,North,0,0.0,4.0,20,0.00,,---,0.00,VWS V14.01,2013-09-02 18:35:00,
2013-09-02 12:40:00,80.2,35.6,29.91,NNW,337,2.7,4.0,20,0.00,,---,0.00,VWS V14.01,2013-09-02 18:40:00,
2013-09-02 12:45:00,80.1,31.4,29.91,NNE,21,0.0,0.0,17,0.00,,---,0.00,VWS V14.01,2013-09-02 18:45:00,
2013-09-02 12:50:00,79.5,30.9,29.91,NE,38,0.0,0.0,17,0.00,,---,0.00,VWS V14.01,2013-09-02 18:50:00,
2013-09-02 12:55:00,79.0,30.5,29.91,North,0,0.0,3.1,17,0.00,,---,0.00,VWS V14.01,2013-09-02 18:55:00,
2013-09-02 13:00:00,79.0,30.5,29.91,NNE,15,0.0,0.0,17,0.00,,---,0.00,VWS V14.01,2013-09-02 19:00:00,
2013-09-02 13:05:00,79.9,31.2,29.91,SW,222,0.0,3.6,17,0.00,,---,0.00,VWS V14.01,2013-09-02 19:05:00,
2013-09-02 13:10:00,80.6,31.8,29.91,NNE,22,2.7,4.0,17,0.00,,---,0.00,VWS V14.01,2013-09-02 19:10:00,
2013-09-02 13:15:00,80.4,31.7,29.91,NNE,30,0.0,3.1,17,0.00,,---,0.00,VWS V14.01,2013-09-02 19:15:00,
2013-09-02 13:20:00,80.4,31.7,29.91,NW,308,0.0,3.1,17,0.00,,---,0.00,VWS V14.01,2013-09-02 19:20:00,
2013-09-02 13:25:00,80.2,31.5,29.91,West,272,0.0,3.1,17,0.00,,---,0.00,VWS V14.01,2013-09-02 19:25:00,
2013-09-02 13:30:00,80.1,31.4,29.91,WSW,257,0.0,0.0,17,0.00,,---,0.00,VWS V14.01,2013-09-02 19:30:00,
2013-09-02 13:35:00,81.0,32.1,29.91,North,5,0.0,4.0,17,0.00,,---,0.00,VWS V14.01,2013-09-02 19:35:00,
2013-09-02 13:40:00,81.0,32.1,29.91,NNE,14,0.0,4.0,17,0.00,,---,0.00,VWS V14.01,2013-09-02 19:40:00,
2013-09-02 13:45:00,80.6,27.0,29.91,NNW,341,0.0,0.0,14,0.00,,---,0.00,VWS V14.01,2013-09-02 19:45:00,
2013-09-02 13:50:00,80.4,28.6,29.91,NW,304,0.0,2.7,15,0.00,,---,0.00,VWS V14.01,2013-09-02 19:50:00,
2013-09-02 13:55:00,80.6,27.0,29.91,North,3,0.0,2.7,14,0.00,,---,0.00,VWS V14.01,2013-09-02 19:55:00,
2013-09-02 14:00:00,81.1,27.5,29.91,WNW,301,0.0,0.0,14,0.00,,---,0.00,VWS V14.01,2013-09-02 20:00:00,
2013-09-02 14:05:00,82.8,28.8,29.91,NW,321,0.0,2.2,14,0.00,,---,0.00,VWS V14.01,2013-09-02 20:05:00,
2013-09-02 14:10:00,83.5,29.3,29.91,West,272,0.0,2.2,14,0.00,,---,0.00,VWS V14.01,2013-09-02 20:10:00,
2013-09-02 14:15:00,85.3,28.9,29.91,NNE,18,0.0,0.0,13,0.00,,---,0.00,VWS V14.01,2013-09-02 20:15:00,
2013-09-02 14:20:00,86.5,29.9,29.91,North,353,0.0,3.1,13,0.00,,---,0.00,VWS V14.01,2013-09-02 20:20:00,
2013-09-02 14:25:00,85.3,28.9,29.91,West,273,0.0,3.1,13,0.00,,---,0.00,VWS V14.01,2013-09-02 20:25:00,
2013-09-02 14:30:00,84.6,28.4,29.91,NNE,14,0.0,0.0,13,0.00,,---,0.00,VWS V14.01,2013-09-02 20:30:00,
2013-09-02 14:35:00,85.3,28.9,29.91,North,2,0.0,2.7,13,0.00,,---,0.00,VWS V14.01,2013-09-02 20:35:00,
2013-09-02 14:40:00,86.7,30.0,29.91,North,4,0.0,2.7,13,0.00,,---,0.00,VWS V14.01,2013-09-02 20:40:00,
2013-09-02 14:45:00,86.9,30.2,29.91,NNE,13,0.0,0.0,13,0.00,,---,0.00,VWS V14.01,2013-09-02 20:45:00,
2013-09-02 14:50:00,85.3,28.9,29.91,NNE,18,0.0,2.7,13,0.00,,---,0.00,VWS V14.01,2013-09-02 20:50:00,
2013-09-02 14:55:00,84.2,28.1,29.91,NNE,21,0.0,2.7,13,0.00,,---,0.00,VWS V14.01,2013-09-02 20:55:00,
2013-09-02 15:00:00,83.8,29.6,29.91,NNW,346,0.0,0.0,14,0.00,,---,0.00,VWS V14.01,2013-09-02 21:00:00,
2013-09-02 15:05:00,83.7,29.5,29.91,NNW,343,0.0,2.2,14,0.00,,---,0.00,VWS V14.01,2013-09-02 21:05:00,
2013-09-02 15:10:00,84.2,28.1,29.91,North,357,0.0,2.2,13,0.00,,---,0.00,VWS V14.01,2013-09-02 21:10:00,
2013-09-02 15:15:00,84.9,28.6,29.91,North,353,2.7,3.1,13,0.00,,---,0.00,VWS V14.01,2013-09-02 21:15:00,
2013-09-02 15:20:00,84.9,28.6,29.91,North,10,0.0,3.1,13,0.00,,---,0.00,VWS V14.01,2013-09-02 21:20:00,
2013-09-02 15:25:00,85.8,29.4,29.91,North,357,0.0,3.1,13,0.00,,---,0.00,VWS V14.01,2013-09-02 21:25:00,
2013-09-02 15:30:00,86.5,29.9,29.91,North,3,0.0,2.2,13,0.00,,---,0.00,VWS V14.01,2013-09-02 21:30:00,
2013-09-02 15:35:00,85.1,28.8,29.91,North,0,0.0,2.7,13,0.00,,---,0.00,VWS V14.01,2013-09-02 21:35:00,
2013-09-02 15:40:00,84.0,29.8,29.91,North,0,0.0,2.7,14,0.00,,---,0.00,VWS V14.01,2013-09-02 21:40:00,
2013-09-02 15:45:00,83.3,29.2,29.91,West,260,0.0,2.2,14,0.00,,---,0.00,VWS V14.01,2013-09-02 21:45:00,
2013-09-02 15:50:00,83.1,29.0,29.91,SW,222,0.0,2.2,14,0.00,,---,0.00,VWS V14.01,2013-09-02 21:50:00,
2013-09-02 15:55:00,83.1,29.0,29.91,NNE,22,0.0,2.2,14,0.00,,---,0.00,VWS V14.01,2013-09-02 21:55:00,
2013-09-02 16:00:00,83.5,29.3,29.91,West,265,0.0,0.0,14,0.00,,---,0.00,VWS V14.01,2013-09-02 22:00:00,
2013-09-02 16:05:00,83.7,29.5,29.91,North,4,0.0,0.0,14,0.00,,---,0.00,VWS V14.01,2013-09-02 22:05:00,
2013-09-02 16:10:00,83.5,29.3,29.91,NNW,340,2.2,2.7,14,0.00,,---,0.00,VWS V14.01,2013-09-02 22:10:00,
2013-09-02 16:15:00,82.9,28.9,29.91,WNW,292,0.0,0.0,14,0.00,,---,0.00,VWS V14.01,2013-09-02 22:15:00,
2013-09-02 16:20:00,82.9,28.9,29.91,North,353,0.0,0.0,14,0.00,,---,0.00,VWS V14.01,2013-09-02 22:20:00,
2013-09-02 16:25:00,83.1,29.0,29.91,North,357,0.0,2.2,14,0.00,,---,0.00,VWS V14.01,2013-09-02 22:25:00,
2013-09-02 16:30:00,83.3,29.2,29.91,North,357,0.0,0.0,14,0.00,,---,0.00,VWS V14.01,2013-09-02 22:30:00,
2013-09-02 16:35:00,83.7,29.5,29.91,North,5,0.0,3.1,14,0.00,,---,0.00,VWS V14.01,2013-09-02 22:35:00,
2013-09-02 16:40:00,83.7,29.5,29.91,NNW,336,0.0,3.1,14,0.00,,---,0.00,VWS V14.01,2013-09-02 22:40:00,
2013-09-02 16:45:00,83.1,29.0,29.91,North,8,0.0,0.0,14,0.00,,---,0.00,VWS V14.01,2013-09-02 22:45:00,
2013-09-02 16:50:00,82.9,28.9,29.91,NNW,341,0.0,2.7,14,0.00,,---,0.00,VWS V14.01,2013-09-02 22:50:00,
2013-09-02 16:55:00,82.8,28.8,29.91,North,353,0.0,3.1,14,0.00,,---,0.00,VWS V14.01,2013-09-02 22:55:00,
2013-09-02 17:00:00,82.6,28.6,29.91,West,270,0.0,0.0,14,0.00,,---,0.00,VWS V14.01,2013-09-02 23:00:00,
2013-09-02 17:05:00,82.8,28.8,29.91,NNW,327,0.0,2.7,14,0.00,,---,0.00,VWS V14.01,2013-09-02 23:05:00,
2013-09-02 17:10:00,82.9,28.9,29.91,NW,317,0.0,3.1,14,0.00,,---,0.00,VWS V14.01,2013-09-02 23:10:00,
2013-09-02 17:15:00,82.6,28.6,29.91,NNW,346,0.0,0.0,14,0.00,,---,0.00,VWS V14.01,2013-09-02 23:15:00,
2013-09-02 17:20:00,82.0,28.2,29.91,NNW,341,0.0,0.0,14,0.00,,---,0.00,VWS V14.01,2013-09-02 23:20:00,
2013-09-02 17:25:00,81.7,27.9,29.91,North,357,3.1,3.1,14,0.00,,---,0.00,VWS V14.01,2013-09-02 23:25:00,
2013-09-02 17:30:00,81.7,27.9,29.91,NNW,343,0.0,0.0,14,0.00,,---,0.00,VWS V14.01,2013-09-02 23:30:00,
2013-09-02 17:35:00,81.7,27.9,29.91,North,0,0.0,2.2,14,0.00,,---,0.00,VWS V14.01,2013-09-02 23:35:00,
2013-09-02 17:40:00,81.9,28.0,29.91,North,7,0.0,2.2,14,0.00,,---,0.00,VWS V14.01,2013-09-02 23:40:00,
2013-09-02 17:45:00,82.4,28.5,29.91,North,7,0.0,0.0,14,0.00,,---,0.00,VWS V14.01,2013-09-02 23:45:00,
2013-09-02 17:50:00,83.1,29.0,29.91,WNW,286,2.2,3.1,14,0.00,,---,0.00,VWS V14.01,2013-09-02 23:50:00,
2013-09-02 17:55:00,83.5,29.3,29.91,NNE,14,0.0,4.9,14,0.00,,---,0.00,VWS V14.01,2013-09-02 23:55:00,
2013-09-02 18:00:00,82.9,28.9,29.91,NW,305,0.0,0.0,14,0.00,,---,0.00,VWS V14.01,2013-09-03 00:00:00,
2013-09-02 18:05:00,82.2,28.3,29.91,North,11,0.0,0.0,14,0.00,,---,0.00,VWS V14.01,2013-09-03 00:05:00,
2013-09-02 18:10:00,81.7,27.9,29.91,West,269,0.0,0.0,14,0.00,,---,0.00,VWS V14.01,2013-09-03 00:10:00,
2013-09-02 18:15:00,81.1,27.5,29.91,NNE,13,0.0,0.0,14,0.00,,---,0.00,VWS V14.01,2013-09-03 00:15:00,
2013-09-02 18:20:00,80.8,27.2,29.91,NNE,13,0.0,0.0,14,0.00,,---,0.00,VWS V14.01,2013-09-03 00:20:00,
2013-09-02 18:25:00,80.4,28.6,29.91,NW,325,0.0,0.0,15,0.00,,---,0.00,VWS V14.01,2013-09-03 00:25:00,
2013-09-02 18:30:00,80.1,28.3,29.91,North,353,0.0,0.0,15,0.00,,---,0.00,VWS V14.01,2013-09-03 00:30:00,
2013-09-02 18:35:00,79.9,28.1,29.91,North,0,0.0,0.0,15,0.00,,---,0.00,VWS V14.01,2013-09-03 00:35:00,
2013-09-02 18:40:00,79.5,30.9,29.91,North,0,0.0,0.0,17,0.00,,---,0.00,VWS V14.01,2013-09-03 00:40:00,
2013-09-02 18:45:00,79.0,30.5,29.91,North,0,0.0,0.0,17,0.00,,---,0.00,VWS V14.01,2013-09-03 00:45:00,
2013-09-02 18:50:00,78.8,30.4,29.93,NW,326,0.0,0.0,17,0.00,,---,0.00,VWS V14.01,2013-09-03 00:50:00,
2013-09-02 18:55:00,78.4,31.5,29.93,NNW,338,0.0,0.0,18,0.00,,---,0.00,VWS V14.01,2013-09-03 00:55:00,
2013-09-02 19:00:00,78.1,31.2,29.93,WNW,292,0.0,0.0,18,0.00,,---,0.00,VWS V14.01,2013-09-03 01:00:00,
2013-09-02 19:05:00,78.1,31.2,29.93,NW,310,0.0,0.0,18,0.00,,---,0.00,VWS V14.01,2013-09-03 01:05:00,
2013-09-02 19:10:00,77.7,30.9,29.93,NW,310,0.0,0.0,18,0.00,,---,0.00,VWS V14.01,2013-09-03 01:10:00,
2013-09-02 19:15:00,77.4,30.6,29.93,NW,324,0.0,2.7,18,0.00,,---,0.00,VWS V14.01,2013-09-03 01:15:00,
2013-09-02 19:20:00,77.2,30.4,29.93,NNW,330,0.0,2.7,18,0.00,,---,0.00,VWS V14.01,2013-09-03 01:20:00,
2013-09-02 19:25:00,76.6,30.0,29.93,NNW,344,0.0,2.7,18,0.00,,---,0.00,VWS V14.01,2013-09-03 01:25:00,
2013-09-02 19:30:00,76.3,29.7,29.93,NNW,344,0.0,0.0,18,0.00,,---,0.00,VWS V14.01,2013-09-03 01:30:00,
2013-09-02 19:35:00,75.6,31.7,29.93,NNW,344,0.0,0.0,20,0.00,,---,0.00,VWS V14.01,2013-09-03 01:35:00,
2013-09-02 19:40:00,75.4,31.6,29.93,NNW,344,0.0,0.0,20,0.00,,---,0.00,VWS V14.01,2013-09-03 01:40:00,
2013-09-02 19:45:00,75.0,32.5,29.93,NNW,345,0.0,0.0,21,0.00,,---,0.00,VWS V14.01,2013-09-03 01:45:00,
2013-09-02 19:50:00,74.8,32.3,29.93,NNW,345,0.0,0.0,21,0.00,,---,0.00,VWS V14.01,2013-09-03 01:50:00,
2013-09-02 19:55:00,74.5,32.0,29.93,NNW,345,0.0,0.0,21,0.00,,---,0.00,VWS V14.01,2013-09-03 01:55:00,
2013-09-02 20:00:00,74.1,31.7,29.93,WSW,242,0.0,0.0,21,0.00,,---,0.00,VWS V14.01,2013-09-03 02:00:00,
2013-09-02 20:05:00,73.9,31.6,29.93,WSW,242,0.0,0.0,21,0.00,,---,0.00,VWS V14.01,2013-09-03 02:05:00,
2013-09-02 20:10:00,73.6,31.3,29.93,WSW,242,0.0,0.0,21,0.00,,---,0.00,VWS V14.01,2013-09-03 02:10:00,
2013-09-02 20:15:00,73.0,32.0,29.93,WSW,242,0.0,0.0,22,0.00,,---,0.00,VWS V14.01,2013-09-03 02:15:00,
2013-09-02 20:20:00,72.9,31.8,29.93,WSW,242,0.0,0.0,22,0.00,,---,0.00,VWS V14.01,2013-09-03 02:20:00,
2013-09-02 20:25:00,72.7,31.7,29.93,WSW,242,0.0,0.0,22,0.00,,---,0.00,VWS V14.01,2013-09-03 02:25:00,
2013-09-02 20:30:00,72.7,31.7,29.93,WSW,242,0.0,0.0,22,0.00,,---,0.00,VWS V14.01,2013-09-03 02:30:00,
2013-09-02 20:35:00,72.9,31.8,29.93,SW,230,0.0,0.0,22,0.00,,---,0.00,VWS V14.01,2013-09-03 02:35:00,
2013-09-02 20:40:00,72.9,31.8,29.93,SW,230,0.0,0.0,22,0.00,,---,0.00,VWS V14.01,2013-09-03 02:40:00,
2013-09-02 20:45:00,72.7,31.7,29.93,SW,230,0.0,0.0,22,0.00,,---,0.00,VWS V14.01,2013-09-03 02:45:00,
2013-09-02 20:50:00,72.5,31.5,29.93,WSW,248,0.0,4.0,22,0.00,,---,0.00,VWS V14.01,2013-09-03 02:50:00,
2013-09-02 20:55:00,72.3,31.4,29.93,WSW,253,0.0,4.0,22,0.00,,---,0.00,VWS V14.01,2013-09-03 02:55:00,
2013-09-02 21:00:00,72.0,31.1,29.93,WSW,242,0.0,0.0,22,0.00,,---,0.00,VWS V14.01,2013-09-03 03:00:00,
2013-09-02 21:05:00,71.6,30.8,29.93,WSW,242,0.0,0.0,22,0.00,,---,0.00,VWS V14.01,2013-09-03 03:05:00,
2013-09-02 21:10:00,71.6,30.8,29.93,WSW,246,0.0,0.0,22,0.00,,---,0.00,VWS V14.01,2013-09-03 03:10:00,
2013-09-02 21:15:00,71.4,31.7,29.93,West,271,0.0,0.0,23,0.00,,---,0.00,VWS V14.01,2013-09-03 03:15:00,
2013-09-02 21:20:00,71.4,31.7,29.93,West,271,0.0,0.0,23,0.00,,---,0.00,VWS V14.01,2013-09-03 03:20:00,
2013-09-02 21:25:00,71.4,31.7,29.96,West,271,0.0,0.0,23,0.00,,---,0.00,VWS V14.01,2013-09-03 03:25:00,
2013-09-02 21:30:00,71.1,31.4,29.96,West,271,0.0,0.0,23,0.00,,---,0.00,VWS V14.01,2013-09-03 03:30:00,
2013-09-02 21:35:00,71.1,31.4,29.96,West,268,0.0,0.0,23,0.00,,---,0.00,VWS V14.01,2013-09-03 03:35:00,
2013-09-02 21:40:00,71.1,31.4,29.96,West,268,0.0,0.0,23,0.00,,---,0.00,VWS V14.01,2013-09-03 03:40:00,
2013-09-02 21:45:00,70.9,31.3,29.96,West,265,0.0,0.0,23,0.00,,---,0.00,VWS V14.01,2013-09-03 03:45:00,
2013-09-02 21:50:00,70.7,31.1,29.96,West,259,0.0,0.0,23,0.00,,---,0.00,VWS V14.01,2013-09-03 03:50:00,
2013-09-02 21:55:00,70.2,30.7,29.96,WSW,258,0.0,0.0,23,0.00,,---,0.00,VWS V14.01,2013-09-03 03:55:00,
2013-09-02 22:00:00,69.6,31.3,29.96,West,259,0.0,0.0,24,0.00,,---,0.00,VWS V14.01,2013-09-03 04:00:00,
2013-09-02 22:01:00,69.6,31.3,29.96,West,259,0.0,0.0,24,0.00,,---,0.00,VWS V14.01,2013-09-03 04:01:00,
2013-09-02 22:06:00,69.3,31.0,29.96,West,274,0.0,3.1,24,0.00,,---,0.00,VWS V14.01,2013-09-03 04:06:00,
2013-09-02 22:11:00,68.9,30.6,29.96,West,274,0.0,3.1,24,0.00,,---,0.00,VWS V14.01,2013-09-03 04:11:00,
2013-09-02 22:16:00,68.5,31.4,29.96,West,274,0.0,0.0,25,0.00,,---,0.00,VWS V14.01,2013-09-03 04:16:00,
2013-09-02 22:21:00,68.4,34.9,29.96,North,357,0.0,0.0,29,0.00,,---,0.00,VWS V14.01,2013-09-03 04:21:00,
2013-09-02 22:26:00,67.5,34.1,29.96,North,357,0.0,0.0,29,0.00,,---,0.00,VWS V14.01,2013-09-03 04:26:00,
2013-09-02 22:31:00,66.7,34.3,29.96,North,357,0.0,0.0,30,0.00,,---,0.00,VWS V14.01,2013-09-03 04:31:00,
2013-09-02 22:36:00,66.0,34.5,29.96,North,357,0.0,0.0,31,0.00,,---,0.00,VWS V14.01,2013-09-03 04:36:00,
2013-09-02 22:41:00,65.5,34.9,29.96,North,357,0.0,0.0,32,0.00,,---,0.00,VWS V14.01,2013-09-03 04:41:00,
2013-09-02 22:46:00,65.1,34.6,29.96,North,357,0.0,0.0,32,0.00,,---,0.00,VWS V14.01,2013-09-03 04:46:00,
2013-09-02 22:51:00,64.9,34.4,29.96,WNW,283,0.0,0.0,32,0.00,,---,0.00,VWS V14.01,2013-09-03 04:51:00,
2013-09-02 22:56:00,64.6,34.8,29.96,WNW,283,0.0,0.0,33,0.00,,---,0.00,VWS V14.01,2013-09-03 04:56:00,
2013-09-02 23:01:00,64.0,34.4,29.96,WNW,283,0.0,0.0,33,0.00,,---,0.00,VWS V14.01,2013-09-03 05:01:00,
2013-09-02 23:06:00,63.5,33.9,29.96,WNW,283,0.0,0.0,33,0.00,,---,0.00,VWS V14.01,2013-09-03 05:06:00,
2013-09-02 23:11:00,63.0,33.4,29.96,SW,234,0.0,0.0,33,0.00,,---,0.00,VWS V14.01,2013-09-03 05:11:00,
2013-09-02 23:16:00,62.6,33.9,29.96,SW,234,0.0,0.0,34,0.00,,---,0.00,VWS V14.01,2013-09-03 05:16:00,
2013-09-02 23:21:00,62.2,33.5,29.96,SW,234,0.0,0.0,34,0.00,,---,0.00,VWS V14.01,2013-09-03 05:21:00,
2013-09-02 23:26:00,61.9,33.2,29.96,SW,234,0.0,0.0,34,0.00,,---,0.00,VWS V14.01,2013-09-03 05:26:00,
2013-09-02 23:31:00,61.5,32.9,29.96,SW,234,0.0,0.0,34,0.00,,---,0.00,VWS V14.01,2013-09-03 05:31:00,
2013-09-02 23:36:00,61.3,33.5,29.96,SW,234,0.0,0.0,35,0.00,,---,0.00,VWS V14.01,2013-09-03 05:36:00,
2013-09-02 23:41:00,61.3,33.5,29.96,SW,234,0.0,0.0,35,0.00,,---,0.00,VWS V14.01,2013-09-03 05:41:00,
2013-09-02 23:46:00,61.0,33.2,29.96,SW,234,0.0,0.0,35,0.00,,---,0.00,VWS V14.01,2013-09-03 05:46:00,
2013-09-02 23:51:00,60.8,33.0,29.96,SW,234,0.0,0.0,35,0.00,,---,0.00,VWS V14.01,2013-09-03 05:51:00,
2013-09-02 23:56:00,60.6,33.5,29.96,SW,234,0.0,0.0,36,0.00,,---,0.00,VWS V14.01,2013-09-03 05:56:00,